Flag Weather past 2 weeks in Schwäbisch Gmünd, Baden-Württemberg, Germany

Now
33 °F

Low clouds.


Feels Like: 27 °F
Forecast: 30 / 42 °F
Wind: 7 mph from Southeast

Location: Stoetten

Current Time: Nov 28, 2014 at 4:06:47 AM

Latest Report: Nov 28, 2014 at 3:00 AM


Visibility: 0 mi

Pressure: 29.87 "Hg

Humidity: 100%

Dew point: 33 °F

Location of Schwäbisch GmündLocation

Historic Weather in Schwäbisch Gmünd — Graph

°F

Schwäbisch Gmünd temperature yesterday

Maximum temperature yesterday: 35 °F (at 2:00 PM)
Minimum temperature yesterday: 34 °F (at 12:00 AM)
Average temperature yesterday: 34 °F

Past Weeks' High & Low Weather Summary

 TemperatureHumidityPressure
High54 °F (Nov 24, 7:00 AM)100% (Nov 13, 3:00 AM)30.35 "Hg (Nov 13, 3:00 AM)
Low33 °F (Nov 28, 3:00 AM)61% (Nov 24, 7:00 AM)29.50 "Hg (Nov 16, 12:00 AM)
Average39 °F98%30.00 "Hg
* Reported Nov 13 3:00 AM — Nov 28 3:00 AM, Schwäbisch Gmünd, Weather by CustomWeather, © 2014

Note: Actual official high and low records may vary slightly from our data, if they occured in-between our weather recording intervals... More about our weather records

Advertising

Schwäbisch Gmünd weather history for previous 24 hours

 ConditionsComfort  
Time TempWeatherWind HumidityBarometerVisibility
3:00 AM
Nov 28
33 °FLow clouds.7 mph100%29.87 "Hg0 mi
2:00 AM34 °FLow clouds.7 mph100%29.86 "Hg0 mi
1:00 AM35 °FLow clouds.5 mph100%29.86 "Hg0 mi
12:00 AM35 °FLow clouds.6 mph100%29.87 "Hg0 mi
11:00 PM
Nov 27
35 °FLow clouds.6 mph100%29.87 "Hg0 mi
10:00 PM35 °FLow clouds.6 mph100%29.87 "Hg0 mi
9:00 PM35 °FFog.6 mph100%29.87 "Hg0 mi
8:00 PM35 °FFog.6 mph100%29.86 "Hg0 mi
7:00 PM35 °FFog.5 mph100%29.87 "Hg0 mi
6:00 PM35 °FFog.7 mph100%29.84 "Hg0 mi
5:00 PM34 °FFog.6 mph100%29.85 "Hg0 mi
4:00 PM34 °FFog.5 mph100%29.84 "Hg0 mi
3:00 PM35 °FFog.5 mph100%29.83 "Hg0 mi
2:00 PM35 °FFog.6 mph100%29.84 "Hg0 mi
1:00 PM35 °FFog.6 mph100%29.85 "Hg0 mi
12:00 PM35 °FFog.6 mph100%29.85 "Hg0 mi
11:00 AM35 °FFog.6 mph100%29.87 "Hg0 mi
10:00 AM34 °FFog.6 mph100%29.88 "Hg0 mi
9:00 AM34 °FFog.6 mph100%29.88 "Hg0 mi
8:00 AM34 °FFog.7 mph100%29.89 "Hg0 mi
7:00 AM34 °FFog.5 mph100%29.89 "Hg0 mi
6:00 AM34 °FFog.5 mph100%29.90 "Hg0 mi
5:00 AM34 °FLow clouds.5 mph100%29.91 "Hg0 mi
4:00 AM34 °FLow clouds.5 mph100%29.93 "Hg0 mi
Weather by CustomWeather, © 2014

See weather overviewHow to use our weather pages